Morrisville, NC

3:52 AM EST on February 24, 2017 (GMT -0500)
Raleigh-Durham International

Weather History for KRDU - April, 2015

Change the Weather History Date:

Sunday, April 12, 2015

  Actual Average Record
Temperature  
Mean Temperature 60 °F 59 °F  
Max Temperature 73 °F 72 °F 94 °F (1930)
Min Temperature 47 °F 47 °F 26 °F (1973)
Degree Days  
Heating Degree Days 5 7  
Month to date heating degree days 44 98  
Since 1 July heating degree days 3360 3094  
Cooling Degree Days 0 1  
Month to date cooling degree days 30 12  
Year to date cooling degree days 34 24  
Growing Degree Days 10 (Base 50)    
Moisture  
Dew Point 41 °F    
Average Humidity 54    
Maximum Humidity 80    
Minimum Humidity 28    
Precipitation  
Precipitation 0.00 in 0.10 in 1.65 in (1959)
Month to date precipitation 0.64 1.25  
Year to date precipitation 10.18 12.09  
Snow  
Snow 0.00 in 0.00 in T in (1918)
Month to date snowfall 0.0 0.1  
Since 1 July snowfall 7.9 6.1  
Snow Depth 0.00 in    
Sea Level Pressure  
Sea Level Pressure 30.29 in    
Wind  
Wind Speed 8 mph (ESE)    
Max Wind Speed 20 mph    
Max Gust Speed 28 mph    
Visibility 10 miles    
Events      
T = Trace of Precipitation, MM = Missing Value Source: NWS Daily Summary

Daily Weather History Graph

Daily Weather History Graph

Search for Another Location

Airport or City:

Trip Planner

Search our weather history database for the weather conditions in past years. The results will help you decide how hot, cold, wet, or windy it might be!

Date:

Astronomy

Apr. 12, 2015 Rise Set
Actual Time 6:46 AM EDT 7:45 PM EDT
Civil Twilight 6:20 AM EDT 8:12 PM EDT
Nautical Twilight 5:49 AM EDT 8:43 PM EDT
Astronomical Twilight 5:17 AM EDT 9:15 PM EDT
Moon 2:21 AM EDT (4/12) 1:09 PM EDT (4/12)
Length of Visible Light 13h 51m
Length of Day
12h 59m
Last Quarter, 44% of the Moon is Illuminated
Apr 12
Last Quarter
Apr 18
New
Apr 25
First Quarter
May 3
Full
May 11
Last Quarter

Hourly Weather History & Observations

Time (EDT) Temp. Dew Point Humidity Pressure Visibility Wind Dir Wind Speed Gust Speed Precip Events Conditions
12:51 AM 52.0 °F 39.9 °F 63% 30.19 in 10.0 mi Calm Calm - N/A   Scattered Clouds
1:51 AM 50.0 °F 41.0 °F 71% 30.21 in 10.0 mi Calm Calm - N/A   Scattered Clouds
2:51 AM 48.0 °F 42.1 °F 80% 30.22 in 10.0 mi ENE 4.6 mph - N/A   Clear
3:51 AM 54.0 °F 44.1 °F 69% 30.23 in 10.0 mi ESE 8.1 mph - N/A   Partly Cloudy
4:51 AM 54.0 °F 43.0 °F 66% 30.24 in 10.0 mi East 10.4 mph - N/A   Scattered Clouds
5:51 AM 51.1 °F 42.1 °F 71% 30.26 in 10.0 mi East 4.6 mph - N/A   Scattered Clouds
6:51 AM 50.0 °F 42.1 °F 74% 30.30 in 10.0 mi ENE 4.6 mph - N/A   Scattered Clouds
7:51 AM 54.0 °F 39.9 °F 59% 30.32 in 10.0 mi East 10.4 mph - N/A   Partly Cloudy
8:51 AM 57.9 °F 35.1 °F 42% 30.35 in 10.0 mi East 12.7 mph - N/A   Partly Cloudy
9:51 AM 61.0 °F 32.0 °F 34% 30.36 in 10.0 mi East 15.0 mph 20.7 mph N/A   Partly Cloudy
10:51 AM 63.0 °F 32.0 °F 31% 30.37 in 10.0 mi East 15.0 mph - N/A   Partly Cloudy
11:51 AM 66.0 °F 34.0 °F 30% 30.35 in 10.0 mi East 8.1 mph - N/A   Scattered Clouds
12:51 PM 69.1 °F 36.0 °F 30% 30.34 in 10.0 mi South 10.4 mph - N/A   Scattered Clouds
1:51 PM 71.1 °F 37.9 °F 30% 30.32 in 10.0 mi ENE 8.1 mph - N/A   Mostly Cloudy
2:51 PM 71.1 °F 39.9 °F 32% 30.30 in 10.0 mi South 9.2 mph - N/A   Mostly Cloudy
3:51 PM 72.0 °F 39.9 °F 31% 30.27 in 10.0 mi SE 9.2 mph - N/A   Overcast
4:51 PM 72.0 °F 42.1 °F 34% 30.26 in 10.0 mi SSE 8.1 mph - N/A   Overcast
5:51 PM 70.0 °F 43.0 °F 38% 30.27 in 10.0 mi SSE 6.9 mph - N/A   Overcast
6:51 PM 69.1 °F 43.0 °F 39% 30.27 in 10.0 mi South 4.6 mph - N/A   Overcast
7:51 PM 66.0 °F 44.1 °F 45% 30.28 in 10.0 mi SE 3.5 mph - N/A   Mostly Cloudy
8:51 PM 64.0 °F 45.0 °F 50% 30.31 in 10.0 mi ESE 4.6 mph - N/A   Mostly Cloudy
9:51 PM 63.0 °F 45.0 °F 52% 30.32 in 10.0 mi SE 5.8 mph - N/A   Mostly Cloudy
10:51 PM 62.1 °F 45.0 °F 53% 30.32 in 10.0 mi SSE 6.9 mph - N/A   Scattered Clouds
11:51 PM 61.0 °F 46.0 °F 58% 30.33 in 10.0 mi SSE 6.9 mph - N/A   Mostly Cloudy